Location: Krakow
(50.0212°N, 19.9423°E)
Time: 00:51:10
(UTC+02:00)

CAS-6 - Visible Passes

Search period start: 25 April 2024 00:00
Search period end: 05 May 2024 00:00
Orbit: 607 x 629 km, 97.8° (Epoch: 24 April)

Date Brightness Start Highest point End Pass type
(mag) Time Alt. Az. Time Alt. Az. Time Alt. Az.
25 Apr ? 22:23:25 47° ESE 22:24:20 59° ENE 22:28:35 10° N visible
26 Apr ? 00:00:32 17° W 00:00:48 17° W 00:03:40 10° NW visible
26 Apr ? 21:03:42 10° E 21:05:35 13° NE 21:07:27 10° NNE visible
26 Apr ? 22:40:12 60° SSE 22:41:00 85° ENE 22:45:19 10° NNW visible
27 Apr ? 00:17:19 12° W 00:17:40 12° W 00:19:21 10° WNW visible
27 Apr ? 21:19:52 12° E 21:22:03 17° ENE 21:24:51 10° NNE visible
27 Apr ? 22:56:59 56° SSW 22:57:40 67° WSW 23:01:58 10° NNW visible
28 Apr ? 21:36:38 17° E 21:38:33 23° ENE 21:41:56 10° N visible
28 Apr ? 23:13:45 42° SW 23:14:23 45° W 23:18:32 10° NNW visible
29 Apr ? 21:53:24 24° ESE 21:55:05 32° ENE 21:58:53 10° N visible
29 Apr ? 23:30:31 30° WSW 23:31:08 31° W 23:35:00 10° NNW visible
30 Apr ? 22:10:09 32° ESE 22:11:38 44° ENE 22:15:44 10° N visible
30 Apr ? 23:47:16 21° WSW 23:47:55 22° W 23:51:19 10° NW visible
01 May ? 22:26:54 41° SE 22:28:14 64° ENE 22:32:29 10° N visible
02 May ? 00:04:01 15° W 00:04:44 16° W 00:07:22 10° NW visible
02 May ? 21:07:17 10° E 21:09:24 14° ENE 21:11:30 10° NNE visible
02 May ? 22:43:39 48° SSE 22:44:51 88° WSW 22:49:10 10° NNW visible
03 May ? 00:20:46 10° W 00:21:35 11° W 00:22:40 10° WNW visible
03 May ? 21:23:17 12° E 21:25:50 18° ENE 21:28:46 10° NNE visible
03 May ? 23:00:24 44° SSW 23:01:30 61° WSW 23:05:46 10° NNW visible
04 May ? 21:40:01 16° ESE 21:42:17 25° ENE 21:45:47 10° N visible
04 May ? 23:17:08 35° SW 23:18:11 41° W 23:22:16 10° NNW visible
